Location: Corcelles
(46.1547°N, 4.7234°E)
Time: 04:30:45
(UTC+00:00)

Cosmos 1666 - Pass Details

Date: 14 July 2020
Orbit: 497 x 521 km, 82.5° (Epoch: 06 August)

Event Time Altitude Azimuth Distance (km) Brightness Sun altitude
Exits shadow 02:47:58 15° 238° (WSW) 1,428 4.3 -10.8°
Maximum altitude 02:50:16 26° 287° (WNW) 1,029 4.0 -10.6°
Drops below altitude 10° 02:53:29 10° 345° (NNW) 1,723 5.8 -10.2°
Sets 02:55:52 0° 359° (N) 2,609 7.0 -9.9°
